This is the latest recevied weather packets stored in our database for station/object KE8ZLU. If no packets are shown the sender has not sent any weather packets the latest 1 day(s).
| Time | Temp. | Humidity | Pressure | Rain* | Wind** | Luminosity | Snow |
|---|---|---|---|---|---|---|---|
| 1778054147 | 6.67° C | 67% | 1010.8 hPa | 0 mm | 0.45 m/s, 326° | 0 W/m² | - |
| 1778053843 | 6.67° C | 67% | 1010.8 hPa | 0 mm | 1.34 m/s, 318° | 0 W/m² | - |
| 1778053541 | 6.67° C | 68% | 1010.8 hPa | 0 mm | 0.89 m/s, 312° | 0 W/m² | - |
| 1778053238 | 6.67° C | 68% | 1010.8 hPa | 0 mm | 2.24 m/s, 331° | 0 W/m² | - |
| 1778052936 | 6.67° C | 69% | 1010.8 hPa | 0 mm | 0.89 m/s, 294° | 0 W/m² | - |
| 1778052633 | 6.67° C | 68% | 1011.1 hPa | 0 mm | 1.34 m/s, 318° | 0 W/m² | - |
| 1778052330 | 6.67° C | 68% | 1011 hPa | 0 mm | 0.89 m/s, 313° | 0 W/m² | - |
| 1778052027 | 6.67° C | 68% | 1011 hPa | 0 mm | 0.45 m/s, 315° | 0 W/m² | - |
| 1778051725 | 6.67° C | 67% | 1010.8 hPa | 0 mm | 1.34 m/s, 323° | 0 W/m² | - |
| 1778051422 | 6.67° C | 69% | 1010.7 hPa | 0 mm | 0.45 m/s, 337° | 0 W/m² | - |
| 1778051120 | 6.67° C | 67% | 1010.7 hPa | 0 mm | 0 m/s | 0 W/m² | - |
| 1778050816 | 6.67° C | 68% | 1010.9 hPa | 0 mm | 0.45 m/s, 324° | 0 W/m² | - |
| 1778050514 | 7.22° C | 67% | 1010.8 hPa | 0 mm | 0.45 m/s, 314° | 0 W/m² | - |
| 1778050211 | 7.22° C | 67% | 1010.8 hPa | 0 mm | 0.45 m/s, 341° | 0 W/m² | - |
| 1778049908 | 7.22° C | 66% | 1010.8 hPa | 0 mm | 1.79 m/s, 316° | 0 W/m² | - |
| 1778049603 | 7.22° C | 67% | 1010.7 hPa | 0 mm | 0.89 m/s, 309° | 0 W/m² | - |
| 1778049301 | 7.22° C | 66% | 1010.7 hPa | 0 mm | 1.34 m/s, 323° | 0 W/m² | - |
| 1778048998 | 7.22° C | 67% | 1010.7 hPa | 0 mm | 0.89 m/s, 317° | 0 W/m² | - |
| 1778048697 | 7.22° C | 66% | 1010.8 hPa | 0 mm | 0.89 m/s, 333° | 0 W/m² | - |
| 1778048393 | 7.22° C | 66% | 1010.9 hPa | 0 mm | 0.89 m/s, 293° | 0 W/m² | - |
| 1778048089 | 7.22° C | 66% | 1010.8 hPa | 0 mm | 0.89 m/s, 306° | 0 W/m² | - |
| 1778047787 | 7.22° C | 66% | 1010.9 hPa | 0 mm | 1.34 m/s, 298° | 0 W/m² | - |
| 1778047485 | 7.22° C | 65% | 1010.8 hPa | 0 mm | 1.79 m/s, 314° | 0 W/m² | - |
| 1778047182 | 7.78° C | 66% | 1010.9 hPa | 0 mm | 0.89 m/s, 304° | 0 W/m² | - |
| 1778046879 | 7.78° C | 66% | 1011.1 hPa | 0 mm | 1.34 m/s, 289° | 0 W/m² | - |
* Rain latest hour (hover to see other rain measurements)
** Current wind speed in m/s (hover to see current wind gust speed)